Terug naar catalogus

STARLINK-36227

ActiefCommunicatieVLEO
NORAD 67095·PAYLOAD·🇺🇸 United States

Gelanceerd Dec 14, 2025 vanaf Vandenberg Space Force Base

Loading…

Volgende Passages (komende 24 uur)

TLE

VersSource: CelesTrak SupGP

Epoch: Sep 14, 2026, 22:53 UTC

1 67095C 25298W   26257.95395833  .00036127  00000+0  30281-2 0  2571
2 67095  69.9989 257.2257 0003921 264.9757 249.4514 14.98304274    16

Volg STARLINK-36227 in realtime met AllMySat

Download on the App Store